CW3873 Weather Reports


time (UTC)temp
C
wind
direction
speed
KPH
gust
KPH
rain 1hr
cm
rain 24hr
cm
rain mn
cm
humidity
%
barometer
mb
20260508044304 15 288 1.6 4.8 0.00 0.00 0.00 15 1016.4
20260508043804 15 288 3.2 8.0 0.00 0.00 0.00 15 1016.5
20260508043304 15 288 3.2 4.8 0.00 0.00 0.00 15 1016.5
20260508042804 15 279 0.0 4.8 0.00 0.00 0.00 15 1016.4
20260508041804 15 279 1.6 11.3 0.00 0.00 0.00 15 1016.4
20260508041304 15 273 3.2 14.5 0.00 0.00 0.00 15 1016.5
20260508040804 16 273 1.6 12.9 0.00 0.00 0.00 14 1016.3
20260508040304 16 275 6.4 14.5 0.00 0.00 0.00 14 1016.3
20260508035804 16 288 1.6 9.7 0.00 0.00 0.00 14 1016.4
20260508035306 16 284 4.8 11.3 0.00 0.00 0.00 13 1016.3
20260508034804 16 296 4.8 8.0 0.00 0.00 0.00 13 1016.3
20260508034304 17 298 1.6 8.0 0.00 0.00 0.00 13 1016.2
20260508033304 17 300 3.2 8.0 0.00 0.00 0.00 13 1016.0
20260508032804 17 301 0.0 3.2 0.00 0.00 0.00 13 1016.0
20260508032306 17 301 1.6 4.8 0.00 0.00 0.00 13 1015.9
20260508031803 18 302 0.0 1.6 0.00 0.00 0.00 13 1015.8
20260508031303 18 302 0.0 1.6 0.00 0.00 0.00 12 1015.6
20260508030803 18 302 0.0 1.6 0.00 0.00 0.00 12 1015.6
20260508030304 19 302 0.0 1.6 0.00 0.00 0.00 11 1015.5
20260508025804 19 302 0.0 3.2 0.00 0.00 0.00 11 1015.5
20260508024304 20 305 1.6 8.0 0.00 0.00 0.00 10 1015.1
20260508023803 20 320 1.6 8.0 0.00 0.00 0.00 9 1015.1
20260508023304 20 324 3.2 12.9 0.00 0.00 0.00 10 1015.0
20260508022306 21 306 0.0 3.2 0.00 0.00 0.00 13 1015.0
20260508021803 21 306 0.0 0.0 0.00 0.00 0.00 14 1014.9
20260508021303 21 306 0.0 1.6 0.00 0.00 0.00 13 1014.9
20260508020304 21 285 1.6 11.3 0.00 0.00 0.00 13 1014.8
20260508015804 21 250 0.0 3.2 0.00 0.00 0.00 13 1014.7
20260508015306 21 250 3.2 11.3 0.00 0.00 0.00 13 1014.6
20260508014804 22 250 4.8 12.9 0.00 0.00 0.00 13 1014.6
20260508014304 22 250 3.2 14.5 0.00 0.00 0.00 13 1014.6
20260508013804 22 250 3.2 8.0 0.00 0.00 0.00 13 1014.5
20260508012307 22 250 4.8 11.3 0.00 0.00 0.00 13 1014.4
20260508011804 22 250 4.8 11.3 0.00 0.00 0.00 12 1014.5
20260508011304 22 277 3.2 9.7 0.00 0.00 0.00 12 1014.4
20260508010804 22 277 1.6 4.8 0.00 0.00 0.00 12 1014.4
20260508010303 23 277 3.2 4.8 0.00 0.00 0.00 12 1014.5
20260508005804 23 277 1.6 9.7 0.00 0.00 0.00 12 1014.1
20260508005306 23 277 1.6 11.3 0.00 0.00 0.00 11 1014.1
20260508004804 23 277 3.2 9.7 0.00 0.00 0.00 11 1014.0
20260508004304 23 277 1.6 9.7 0.00 0.00 0.00 11 1014.1
20260508002804 23 292 3.2 8.0 0.00 0.00 0.00 11 1014.2
20260508002306 24 294 1.6 8.0 0.00 0.00 0.00 11 1014.2
20260508001804 24 294 1.6 11.3 0.00 0.00 0.00 11 1014.3
20260508001304 24 292 3.2 14.5 0.00 0.00 0.00 11 1014.2
20260508000804 24 275 1.6 4.8 0.00 0.00 0.00 11 1014.2
20260507235803 24 275 3.2 14.5 0.00 0.00 0.00 11 1014.2
20260507235306 24 283 1.6 16.1 0.00 0.00 0.00 11 1014.3
20260507234805 24 283 8.0 16.1 0.00 0.00 0.00 11 1014.3
20260507234304 24 248 0.0 16.1 0.00 0.00 0.00 11 1014.3
20260507233804 25 248 8.0 19.3 0.00 0.00 0.00 11 1014.5
20260507233304 25 248 4.8 14.5 0.00 0.00 0.00 11 1014.6
20260507232804 25 285 1.6 4.8 0.00 0.00 0.00 10 1014.6
20260507232306 24 290 3.2 8.0 0.00 0.00 0.00 10 1014.6
20260507231805 24 296 0.0 8.0 0.00 0.00 0.00 10 1014.6
20260507231305 24 325 3.2 12.9 0.00 0.00 0.00 10 1014.8
20260507230804 24 332 4.8 14.5 0.00 0.00 0.00 10 1014.8
20260507225306 24 341 8.0 14.5 0.00 0.00 0.00 10 1014.7
20260507224804 24 344 14.5 19.3 0.00 0.00 0.00 10 1014.6
20260507224304 24 47 9.7 19.3 0.00 0.00 0.00 11 1014.7
20260507223805 24 204 3.2 16.1 0.00 0.00 0.00 11 1014.8
20260507223305 25 207 4.8 9.7 0.00 0.00 0.00 10 1015.2
20260507222804 25 97 6.4 16.1 0.00 0.00 0.00 10 1015.2
20260507222306 25 114 8.0 16.1 0.00 0.00 0.00 10 1015.4
20260507221304 25 164 9.7 20.9 0.00 0.00 0.00 9 1015.5
20260507220804 25 202 4.8 14.5 0.00 0.00 0.00 10 1015.6
20260507220304 25 187 3.2 14.5 0.00 0.00 0.00 10 1015.7
20260507215804 25 188 1.6 4.8 0.00 0.00 0.00 9 1015.5
20260507215306 25 119 8.0 12.9 0.00 0.00 0.00 9 1015.6
20260507214805 25 66 8.0 14.5 0.00 0.00 0.00 9 1015.6
20260507214304 25 47 3.2 11.3 0.00 0.00 0.00 11 1015.7
20260507213805 25 67 4.8 12.9 0.00 0.00 0.00 11 1015.9
20260507213305 25 101 6.4 12.9 0.00 0.00 0.00 11 1016.0
20260507212307 24 24 3.2 12.9 0.00 0.00 0.00 10 1016.3
20260507210804 24 90 3.2 11.3 0.00 0.00 0.00 10 1016.5
20260507210304 25 82 6.4 14.5 0.00 0.00 0.00 9 1016.7
20260507205306 25 163 0.0 9.7 0.00 0.00 0.00 12 1016.9
20260507204804 24 355 0.0 11.3 0.00 0.00 0.00 13 1017.1
20260507204304 24 49 4.8 19.3 0.00 0.00 0.00 12 1017.2
20260507203805 25 56 4.8 12.9 0.00 0.00 0.00 12 1017.2
20260507203304 24 238 3.2 11.3 0.00 0.00 0.00 12 1017.3
20260507202804 24 192 1.6 4.8 0.00 0.00 0.00 13 1017.5
20260507202306 24 184 4.8 14.5 0.00 0.00 0.00 12 1017.4
20260507201805 24 32 6.4 19.3 0.00 0.00 0.00 12 1017.5
20260507201305 24 232 8.0 14.5 0.00 0.00 0.00 14 1017.6
20260507200304 23 164 4.8 9.7 0.00 0.00 0.00 15 1017.9
20260507195805 23 137 3.2 12.9 0.00 0.00 0.00 14 1018.0
20260507195305 23 13 1.6 4.8 0.00 0.00 0.00 15 1018.0
20260507194804 23 168 8.0 14.5 0.00 0.00 0.00 15 1018.1
20260507194304 23 6 8.0 14.5 0.00 0.00 0.00 15 1018.1
20260507193805 23 225 3.2 12.9 0.00 0.00 0.00 16 1018.4
20260507192804 22 194 1.6 19.3 0.00 0.00 0.00 17 1018.6
20260507191804 21 298 1.6 4.8 0.00 0.00 0.00 19 1018.8
20260507191304 21 168 4.8 16.1 0.00 0.00 0.00 19 1018.9
20260507190805 21 164 9.7 19.3 0.00 0.00 0.00 19 1019.0
20260507190305 20 77 3.2 9.7 0.00 0.00 0.00 20 1019.1
20260507185305 20 32 4.8 14.5 0.00 0.00 0.00 20 1019.3
20260507184804 20 43 3.2 12.9 0.00 0.00 0.00 21 1019.4
20260507184304 20 36 4.8 16.1 0.00 0.00 0.00 21 1019.6
20260507183804 20 45 8.0 12.9 0.00 0.00 0.00 20 1019.6
20260507183305 20 42 3.2 11.3 0.00 0.00 0.00 21 1019.8
20260507182804 20 37 3.2 9.7 0.00 0.00 0.00 21 1020.0
20260507182306 19 43 1.6 9.7 0.00 0.00 0.00 22 1020.0
20260507181804 18 36 3.2 12.9 0.00 0.00 0.00 23 1020.1
20260507181304 18 35 6.4 12.9 0.00 0.00 0.00 22 1020.1
20260507180804 18 14 3.2 8.0 0.00 0.00 0.00 23 1020.3
20260507175804 18 61 1.6 14.5 0.00 0.00 0.00 24 1020.4
20260507175306 18 6 3.2 9.7 0.00 0.00 0.00 24 1020.6
20260507174804 17 24 3.2 14.5 0.00 0.00 0.00 24 1020.8
20260507174304 17 28 6.4 12.9 0.00 0.00 0.00 26 1020.8
20260507173804 17 44 4.8 12.9 0.00 0.00 0.00 26 1020.6
20260507172804 16 39 8.0 14.5 0.00 0.00 0.00 26 1020.6
20260507172307 16 348 3.2 12.9 0.00 0.00 0.00 27 1020.7
20260507171804 16 7 0.0 4.8 0.00 0.00 0.00 27 1020.8
20260507171304 16 11 4.8 12.9 0.00 0.00 0.00 28 1021.0
20260507170804 16 19 3.2 14.5 0.00 0.00 0.00 28 1021.1
20260507165306 15 32 9.7 19.3 0.00 0.00 0.00 30 1021.2
20260507164804 15 29 9.7 16.1 0.00 0.00 0.00 31 1021.2
20260507164304 15 29 9.7 16.1 0.00 0.00 0.00 32 1021.4
20260507163804 15 43 6.4 16.1 0.00 0.00 0.00 33 1021.4
20260507163304 15 21 9.7 19.3 0.00 0.00 0.00 33 1021.5
20260507162805 14 14 8.0 16.1 0.00 0.00 0.00 34 1021.4
20260507161804 14 32 4.8 16.1 0.00 0.00 0.00 35 1021.5
20260507161305 14 357 9.7 19.3 0.00 0.00 0.00 34 1021.7
20260507160804 13 18 9.7 16.1 0.00 0.00 0.00 35 1021.6
20260507155306 13 353 8.0 20.9 0.00 0.00 0.00 37 1021.7
20260507154305 13 8 8.0 19.3 0.00 0.00 0.00 38 1021.8
20260507153804 13 20 8.0 16.1 0.00 0.00 0.00 39 1021.8
20260507153304 13 8 9.7 22.5 0.00 0.00 0.00 39 1021.9
20260507152804 12 13 9.7 19.3 0.00 0.00 0.00 40 1021.9
20260507152306 12 354 11.3 20.9 0.00 0.00 0.00 41 1021.9
20260507151804 12 19 4.8 19.3 0.00 0.00 0.00 43 1022.0
20260507151304 12 4 9.7 19.3 0.00 0.00 0.00 43 1022.0
20260507150804 12 356 14.5 22.5 0.00 0.00 0.00 44 1022.1
20260507150304 11 1 8.0 20.9 0.00 0.00 0.00 45 1022.2
20260507145804 11 16 8.0 19.3 0.00 0.00 0.00 45 1022.3
20260507145306 11 353 11.3 22.5 0.00 0.00 0.00 46 1022.3
20260507144804 11 8 11.3 19.3 0.00 0.00 0.00 46 1022.3
20260507144305 11 15 9.7 22.5 0.00 0.00 0.00 47 1022.4
20260507143804 11 354 14.5 20.9 0.00 0.00 0.00 47 1022.3
20260507143304 11 352 9.7 20.9 0.00 0.00 0.00 47 1022.3
20260507142306 10 351 16.1 22.5 0.00 0.00 0.00 48 1022.3
20260507141304 10 355 9.7 22.5 0.00 0.00 0.00 49 1022.3
20260507140804 9 356 14.5 25.7 0.00 0.00 0.00 49 1022.2
20260507140304 9 356 17.7 32.2 0.00 0.00 0.00 50 1022.2
20260507135306 8 351 16.1 29.0 0.00 0.00 0.00 51 1022.2
20260507134804 8 357 17.7 32.2 0.00 0.00 0.00 51 1022.2
20260507134304 8 351 19.3 32.2 0.00 0.00 0.00 52 1022.1
20260507133804 8 2 19.3 32.2 0.00 0.00 0.00 53 1022.1
20260507133303 8 0 14.5 29.0 0.00 0.00 0.00 55 1022.1
20260507132307 7 357 16.1 27.4 0.00 0.00 0.00 56 1022.0
20260507131804 7 353 19.3 29.0 0.00 0.00 0.00 58 1021.9
20260507131304 7 359 19.3 25.7 0.00 0.00 0.00 59 1022.0
20260507130304 7 359 16.1 25.7 0.00 0.00 0.00 60 1022.0
20260507125805 6 0 14.5 25.7 0.00 0.00 0.00 60 1022.1
20260507125306 6 0 17.7 25.7 0.00 0.00 0.00 61 1021.9
20260507124804 6 354 16.1 29.0 0.00 0.00 0.00 62 1022.0
20260507124304 6 357 14.5 24.1 0.00 0.00 0.00 62 1021.9
20260507123803 6 358 16.1 24.1 0.00 0.00 0.00 63 1021.8
20260507123304 6 358 14.5 25.7 0.00 0.00 0.00 63 1021.8
20260507122804 5 354 14.5 22.5 0.00 0.00 0.00 63 1021.7
20260507122307 5 0 14.5 22.5 0.00 0.00 0.00 62 1021.6
20260507121804 5 358 11.3 20.9 0.00 0.00 0.00 61 1021.6
20260507121303 5 0 14.5 14.5 0.00 0.00 0.00 61 1021.6
20260507120804 5 0 12.9 14.5 0.00 0.00 0.00 61 1021.7
20260507120304 5 0 9.7 19.3 0.00 0.00 0.00 60 1021.8
20260507115307 6 0 9.7 19.3 0.00 0.00 0.00 59 1021.8
20260507114804 6 0 9.7 19.3 0.00 0.00 0.00 58 1021.8
20260507113804 6 358 8.0 19.3 0.00 0.00 0.00 57 1021.8
20260507113304 6 344 8.0 19.3 0.00 0.00 0.00 55 1021.7
20260507112804 6 0 8.0 12.9 0.00 0.00 0.00 52 1021.7
20260507112307 6 8 4.8 11.3 0.00 0.00 0.00 51 1021.8
20260507111804 6 25 4.8 12.9 0.00 0.00 0.00 50 1021.8
20260507111304 6 12 3.2 9.7 0.00 0.00 0.00 49 1021.7
20260507110804 6 357 4.8 9.7 0.00 0.00 0.00 49 1021.8
20260507110304 6 352 4.8 11.3 0.00 0.00 0.00 48 1021.8
20260507105803 7 359 4.8 12.9 0.00 0.00 0.00 47 1021.8
20260507104804 7 355 4.8 14.5 0.00 0.00 0.00 45 1021.9
20260507104304 7 10 8.0 14.5 0.00 0.00 0.00 45 1021.9
20260507103804 7 353 11.3 19.3 0.00 0.00 0.00 45 1021.9
20260507103304 7 6 6.4 16.1 0.00 0.00 0.00 43 1021.7
20260507102804 7 7 3.2 16.1 0.00 0.00 0.00 43 1021.7
20260507101804 7 358 8.0 20.9 0.00 0.00 0.00 39 1021.6
20260507100304 7 355 8.0 19.3 0.00 0.00 0.00 35 1021.4
20260507095804 7 343 11.3 19.3 0.00 0.00 0.00 35 1021.3
20260507095306 7 3 8.0 16.1 0.00 0.00 0.00 35 1021.5
20260507094303 7 349 9.7 19.3 0.00 0.00 0.00 34 1021.5
20260507093804 7 346 9.7 20.9 0.00 0.00 0.00 33 1021.4
20260507092804 7 335 1.6 8.0 0.00 0.00 0.00 33 1021.4
20260507091804 7 330 3.2 9.7 0.00 0.00 0.00 32 1021.5
20260507090803 8 343 3.2 9.7 0.00 0.00 0.00 31 1021.5
20260507090304 8 355 1.6 4.8 0.00 0.00 0.00 31 1021.5
20260507085804 8 355 1.6 4.8 0.00 0.00 0.00 31 1021.5
20260507085306 8 355 1.6 8.0 0.00 0.00 0.00 31 1021.4
20260507084803 8 0 4.8 8.0 0.00 0.00 0.00 31 1021.4
20260507084304 8 358 6.4 12.9 0.00 0.00 0.00 30 1021.3
20260507083804 8 13 3.2 9.7 0.00 0.00 0.00 31 1021.3
20260507082804 9 101 0.0 3.2 0.00 0.00 0.00 30 1021.3
20260507082306 9 94 0.0 1.6 0.00 0.00 0.00 29 1021.1
20260507081804 10 64 1.6 4.8 0.00 0.00 0.00 28 1021.0
20260507081303 10 335 4.8 16.1 0.00 0.00 0.00 28 1020.8
20260507080804 10 306 8.0 19.3 0.00 0.00 0.00 28 1020.7
20260507080304 10 315 9.7 16.1 0.00 0.00 0.00 28 1020.7
20260507075804 10 306 6.4 16.1 0.00 0.00 0.00 27 1020.7
20260507075306 10 327 8.0 16.1 0.00 0.00 0.00 27 1020.7
20260507074804 10 315 4.8 16.1 0.00 0.00 0.00 27 1020.6
20260507074304 10 319 9.7 20.9 0.00 0.00 0.00 27 1020.5
20260507073804 10 304 8.0 16.1 0.00 0.00 0.00 27 1020.4
20260507072804 10 319 11.3 20.9 0.00 0.00 0.00 26 1020.6
20260507072306 10 323 8.0 19.3 0.00 0.00 0.00 26 1020.4
20260507071805 10 319 12.9 24.1 0.00 0.00 0.00 26 1020.5
20260507070804 10 319 12.9 19.3 0.00 0.00 0.00 26 1020.4
20260507070304 10 317 11.3 22.5 0.00 0.00 0.00 26 1020.5
20260507065804 11 307 8.0 19.3 0.00 0.00 0.00 27 1020.6
20260507064303 11 305 6.4 19.3 0.00 0.00 0.00 26 1020.4
20260507063804 11 319 4.8 14.5 0.00 0.00 0.00 26 1020.5
20260507063304 11 319 4.8 14.5 0.00 0.00 0.00 26 1020.6
20260507062804 11 297 4.8 14.5 0.00 0.00 0.00 26 1020.5
20260507062306 11 309 4.8 16.1 0.00 0.00 0.00 26 1020.5
20260507061803 11 312 8.0 19.3 0.00 0.00 0.00 26 1020.5
20260507061303 11 303 8.0 19.3 0.00 0.00 0.00 26 1020.4
20260507060808 12 313 9.7 19.3 0.00 0.00 0.00 26 1020.2
20260507054804 12 298 8.0 19.3 0.00 0.00 0.00 26 1020.2
20260507054304 12 317 9.7 20.9 0.00 0.00 0.00 26 1020.1
20260507053804 12 326 11.3 25.7 0.00 0.00 0.00 25 1020.0
20260507053304 12 321 9.7 22.5 0.00 0.00 0.00 25 1020.0
20260507052306 12 311 11.3 20.9 0.00 0.00 0.00 25 1020.0
20260507051304 12 320 9.7 19.3 0.00 0.00 0.00 27 1020.0
20260507050804 12 322 9.7 20.9 0.00 0.00 0.00 28 1020.1
20260507050303 12 317 11.3 19.3 0.00 0.00 0.00 30 1020.0
20260507045803 12 325 8.0 20.9 0.00 0.00 0.00 32 1019.8
20260507044804 12 309 4.8 14.5 0.00 0.00 0.00 34 1019.5